"2010-07-15 00:00:00",515,7.984,49.77,6.423,0.579,23.85,110.8993,27.21,28.09,23.25,0,111.3,13.09,28.05,11.8
"2010-07-15 00:00:30",516,8.9,54.92,4.555,0.645,23.82,110.9001,27.21,28.1,23.72,0,111.3,13.09,28.05,16.9
"2010-07-15 00:01:00",517,6.714,61.29,3.002,0.796,23.8,110.8875,27.18,28.09,24.26,0,111.3,13.09,28.02,23.3
"2010-07-15 00:01:30",518,8.12,59.36,4.549,0.595,23.87,110.8802,27.16,28.09,24.12,0,111.3,13.09,28.00,21.4
"2010-07-15 00:02:00",519,7.366,58.9,5.132,0.494,23.86,110.8777,27.15,28.08,24.23,0,111.3,13.09,28.00,20.9
"2010-07-15 00:02:30",520,7.461,52.97,2.578,0.715,23.87,110.8764,27.15,28.06,24.22,0,111.3,13.09,27.99,15.0
"2010-07-15 00:03:00",521,7.871,63.18,6.287,0.462,23.97,110.8717,27.13,28.06,24.2,0,111.3,13.09,27.98,25.2
"2010-07-15 00:03:30",522,6.646,63.08,5.039,0.354,23.9,110.8644,27.12,28.05,24.71,0,111.3,13.09,27.96,25.1
"2010-07-15 00:04:00",523,7.548,55.12,4.335,0.303,23.88,110.8528,27.09,28.03,24.53,0,111.3,13.09,27.93,17.1
"2010-07-15 00:04:30",524,7.59,55.51,2.277,0.435,23.83,110.8527,27.09,28,24.49,0,111.3,13.09,27.93,17.5
"2010-07-15 00:05:00",525,8.42,55.63,2.504,0.215,23.92,110.8528,27.09,28,23.94,0,111.3,13.09,27.93,17.6
"2010-07-15 00:05:30",526,8.59,57.78,4.471,0.596,23.93,110.8444,27.06,27.98,24.01,0,111.3,13.09,27.91,19.8
"2010-07-15 00:06:00",527,7.434,55.23,3.011,0.425,23.97,110.8349,27.04,27.97,23.87,0,111.3,13.09,27.89,17.2
"2010-07-15 00:06:30",528,7.394,59.8,3.977,0.586,23.93,110.8346,27.04,27.95,24.47,0,111.3,13.09,27.89,21.8
"2010-07-15 00:07:00",529,7.674,65.77,3.053,0.28,23.94,110.8315,27.03,27.95,24.81,0,111.3,13.08,27.88,27.8
"2010-07-15 00:07:30",530,7.944,61.17,3.313,0.383,23.93,110.8288,27.02,27.93,24.89,0,111.3,13.08,27.87,23.2
"2010-07-15 00:08:00",531,7.973,69.82,7.165,0.452,24,110.8097,26.98,27.91,24.94,0,111.3,13.09,27.82,31.8
"2010-07-15 00:08:30",532,8.47,70.35,2.138,0.342,24.02,110.8007,26.95,27.88,24.72,0,111.3,13.08,27.80,32.3
"2010-07-15 00:09:00",533,8.43,70.15,1.775,0.245,24,110.7987,26.95,27.88,24.27,0,111.3,13.08,27.79,32.2
"2010-07-15 00:09:30",534,8.67,73.13,2.89,0.448,24.02,110.7987,26.95,27.85,24.16,0,111.3,13.08,27.79,35.1
"2010-07-15 00:10:00",535,7.928,80.1,4.91,0.397,23.99,110.7898,26.92,27.85,24.14,0,111.3,13.09,27.77,42.1
"2010-07-15 00:10:30",536,8.43,77.25,5.649,0.509,23.89,110.7742,26.88,27.83,24.38,0,111.3,13.09,27.73,39.2
"2010-07-15 00:11:00",537,8.38,84,3.392,0.391,23.72,110.7685,26.87,27.82,24.77,0,111.3,13.09,27.72,46.0
"2010-07-15 00:11:30",538,9.01,82.5,1.798,0.462,23.7,110.7619,26.85,27.77,24.93,0,111.3,13.09,27.70,44.5
"2010-07-15 00:12:00",539,9.8,80.5,1.233,0.401,23.8,110.7439,26.81,27.77,24.76,0,111.3,13.09,27.65,42.5
"2010-07-15 00:12:30",540,10.42,78.85,1.619,0.379,23.85,110.7381,26.79,27.73,24.47,0,111.3,13.09,27.64,40.8
"2010-07-15 00:13:00",541,9.96,78.23,1.584,0.331,23.9,110.7211,26.75,27.7,24.34,0,111.3,13.09,27.59,40.2
"2010-07-15 00:13:30",542,10.83,82.5,1.952,0.81,23.92,110.7078,26.71,27.69,24.32,0,111.3,13.1,27.56,44.5
"2010-07-15 00:14:00",543,12.5,83.7,2.978,1.241,23.68,110.7071,26.71,27.67,25.09,0,111.3,13.1,27.56,45.7
"2010-07-15 00:14:30",544,12.94,82.7,2.716,0.624,23.58,110.7006,26.7,27.62,27.23,0,111.3,13.1,27.54,44.7
"2010-07-15 00:15:00",545,12.11,83.5,1.563,0.571,23.49,110.674,26.63,27.61,27.51,0,111.3,13.1,27.47,45.5
"2010-07-15 00:15:30",546,11.72,84.7,3.711,0.429,23.16,110.6364,26.53,27.56,28.64,0,111.3,13.1,27.37,46.7
"2010-07-15 00:16:00",547,12.37,84.3,1.964,0.494,23.16,110.5948,26.42,27.51,29.18,0,111.3,13.1,27.27,46.3
"2010-07-15 00:16:30",548,13.32,85.6,1.541,0.586,23.02,110.5432,26.29,27.41,29.64,0,111.3,13.1,27.13,47.6
"2010-07-15 00:17:00",549,14.13,85.9,0.774,0.318,23.1,110.4902,26.15,27.3,29.92,0,111.3,13.1,27.00,47.9
"2010-07-15 00:17:30",550,14.14,88.2,1.738,0.426,23.27,110.4486,26.05,27.21,29.9,0,111.3,13.1,26.89,50.2
"2010-07-15 00:18:00",551,13.49,89.8,1.936,0.269,23.29,110.4164,25.96,27.14,29.54,0,111.3,13.1,26.81,51.8
"2010-07-15 00:18:30",552,13.56,88.2,0.811,0.072,23.14,110.3967,25.91,27.07,29.6,0,111.3,13.1,26.76,50.2
"2010-07-15 00:19:00",553,13.68,90.7,0.891,0.247,23.35,110.3737,25.85,27.01,29.55,0,111.3,13.1,26.70,52.7
"2010-07-15 00:19:30",554,13.89,89.5,0.725,0.237,23.32,110.3622,25.83,26.94,29.15,0,111.3,13.1,26.67,51.5
"2010-07-15 00:20:00",555,14.55,92.1,1.271,0.369,23.41,110.3413,25.77,26.91,30.05,0,111.3,13.1,26.61,54.1
"2010-07-15 00:20:30",556,15.08,92,1.17,0.189,23.77,110.3275,25.74,26.86,30.93,0,111.3,13.1,26.58,54.0
"2010-07-15 00:21:00",557,15.32,91.4,1.697,0.32,23.42,110.3106,25.69,26.81,31.4,0,111.2,13.1,26.53,53.4
"2010-07-15 00:21:30",558,14.38,87.7,1.265,0.797,23.6,110.2784,25.61,26.75,31.91,0,111.2,13.1,26.45,49.7
"2010-07-15 00:22:00",559,13.81,85.9,1.437,0.72,23.68,110.25,25.54,26.69,32.4,0,111.2,13.1,26.38,47.9
"2010-07-15 00:22:30",560,14.13,86.1,1.359,0.413,23.99,110.2086,25.43,26.59,32.75,0,111.2,13.1,26.27,48.1
"2010-07-15 00:23:00",561,13.53,88.1,1.628,0.494,24.36,110.1607,25.31,26.48,33.07,0,111.2,13.1,26.15,50.1
"2010-07-15 00:23:30",562,12.66,87.6,2.775,0.665,24.45,110.1159,25.19,26.4,33.3,0,111.2,13.1,26.03,49.6
"2010-07-15 00:24:00",563,12.48,90.7,1.91,0.555,22.07,110.0746,25.09,26.29,33.46,0,111.2,13.1,25.93,52.7
"2010-07-15 00:24:30",564,12,93.1,1.4,0.481,23.84,110.0354,24.99,26.17,33.54,0,111.2,13.1,25.82,55.1
"2010-07-15 00:25:00",565,12.05,91.9,2.115,0.507,23.47,109.9933,24.88,26.07,33.86,0,111.2,13.1,25.72,53.9
"2010-07-15 00:25:30",566,11.73,94.2,2.414,0.37,23.6,109.9654,24.81,25.99,34.27,0,111.2,13.1,25.64,56.2
"2010-07-15 00:26:00",567,11.41,94.2,1.958,0.622,24.09,109.9404,24.74,25.91,34.61,0,111.2,13.1,25.58,56.2
"2010-07-15 00:26:30",568,11.75,93.1,2.311,0.37,23.82,109.9236,24.7,25.84,34.79,0,111.2,13.1,25.54,55.1
"2010-07-15 00:27:00",569,13.16,89.6,2.189,0.63,23.65,109.8995,24.64,25.76,34.7,0,111.2,13.1,25.47,51.6
"2010-07-15 00:27:30",570,13.76,89.6,1.864,0.322,23.59,109.8667,24.55,25.7,34.7,0,111.2,13.1,25.39,51.6
"2010-07-15 00:28:00",571,13.07,88.1,0.785,0.349,23.58,109.8383,24.48,25.62,33.85,0,111.2,13.1,25.32,50.1
"2010-07-15 00:28:30",572,12.86,88.3,1.512,0.486,18.42,109.8044,24.39,25.56,34.1,0,111.2,13.1,25.23,50.3
"2010-07-15 00:29:00",573,12.82,85.5,1.884,0.446,-16.27,109.7785,24.33,25.47,34.33,0,111.2,13.11,25.16,47.5
"2010-07-15 00:29:30",574,13.08,86.4,1.068,0.48,7.671,109.755,24.26,25.41,33.35,0,111.2,13.11,25.10,48.4
"2010-07-15 00:30:00",575,11.61,86.2,2.284,0.657,-16.69,109.7339,24.21,25.34,34.25,0,111.2,13.11,25.05,48.2
"2010-07-15 00:30:30",576,11.1,83.3,4.916,0.555,7.733,109.7104,24.15,25.29,35.27,0,111.2,13.12,24.99,45.3
"2010-07-15 00:31:00",577,11.44,89.9,4.306,0.559,10.08,109.6941,24.11,25.24,35.7,0,111.2,13.12,24.94,51.9
"2010-07-15 00:31:30",578,10.39,86,2.856,0.585,5.393,109.6818,24.08,25.19,35.74,0,111.2,13.12,24.91,48.0
"2010-07-15 00:32:00",579,11.47,87.1,2.929,0.526,-11.02,109.6555,24.01,25.12,35.18,0,111.2,13.12,24.85,49.1
"2010-07-15 00:32:30",580,12.23,84.5,2.91,0.307,-5.418,109.6196,23.92,25.04,34.68,0,111.1,13.12,24.75,46.5
"2010-07-15 00:33:00",581,11.44,88.1,2.218,0.69,-24.67,109.5889,23.84,24.96,35.71,0,111.1,13.12,24.67,50.1
"2010-07-15 00:33:30",582,12.44,86.5,1.451,0.297,-24.28,109.5575,23.76,24.89,34.91,0,111.1,13.12,24.59,48.5
"2010-07-15 00:34:00",583,12.81,86.4,1.118,0.366,5.902,109.5221,23.67,24.81,36.06,0,111.1,13.13,24.50,48.4
"2010-07-15 00:34:30",584,12.4,86.2,1.195,0.232,24.93,109.4932,23.59,24.75,35.48,0,111.1,13.13,24.43,48.2
"2010-07-15 00:35:00",585,11.95,87.4,0.923,0.176,21.66,109.4638,23.52,24.66,35.97,0,111.1,13.13,24.35,49.4
"2010-07-15 00:35:30",586,11.51,87.1,1.302,0.187,21.08,109.4459,23.47,24.6,37.03,0,111.1,13.13,24.30,49.1
"2010-07-15 00:36:00",587,10.87,88.8,1.539,0.411,23.68,109.4257,23.42,24.54,35.51,0,111.1,13.13,24.25,50.8
"2010-07-15 00:36:30",588,10.94,95.7,2.156,0.299,22.02,109.4264,23.42,24.47,34.64,0,111.1,13.13,24.25,57.7
"2010-07-15 00:37:00",589,10.74,99.3,2.462,0.237,23.4,109.4255,23.42,24.44,34.74,0,111.1,13.13,24.25,61.3
"2010-07-15 00:37:30",590,10.05,101.4,1.247,0.47,23.63,109.4322,23.44,24.42,34.73,0,111.1,13.13,24.27,63.4
"2010-07-15 00:38:00",591,10.49,103.7,1.598,0.206,24.25,109.4416,23.46,24.42,34.23,0,111.1,13.14,24.29,65.7
"2010-07-15 00:38:30",592,10.71,102.1,0.859,0.188,18.97,109.4529,23.49,24.42,33.7,0,111.1,13.14,24.32,64.1
"2010-07-15 00:39:00",593,10.89,98.3,1.775,0.255,21.13,109.4703,23.53,24.44,35.13,0,111.1,13.14,24.37,60.3
"2010-07-15 00:39:30",594,10.67,95.7,0.782,0.22,24.04,109.4708,23.54,24.46,37.42,0,111,13.14,24.37,57.7
"2010-07-15 00:40:00",595,10.36,93.5,1.079,0.242,23.4,109.4599,23.51,24.46,39.43,0,111.1,13.13,24.34,55.5
"2010-07-15 00:40:30",596,9.81,96.8,1.501,0.32,22.48,109.4422,23.46,24.46,40.54,0,111.1,13.13,24.30,58.8
"2010-07-15 00:41:00",597,8.72,99.6,2.324,0.404,9.97,109.4279,23.42,24.44,40.99,0,111,13.13,24.26,61.6
"2010-07-15 00:41:30",598,9.03,96.7,2.72,0.523,13.62,109.4004,23.35,24.4,41.26,0,111,13.13,24.19,58.7
"2010-07-15 00:42:00",599,9.11,95.3,2.556,0.319,-0.204,109.3779,23.3,24.34,41.71,0,111,13.13,24.13,57.3
"2010-07-15 00:42:30",600,8.97,97.7,2.679,0.507,10.21,109.3569,23.24,24.28,41.92,0,111,13.13,24.08,59.7
"2010-07-15 00:43:00",601,9.01,98.9,1.424,0.218,13.41,109.3433,23.21,24.25,41.97,0,111,13.14,24.04,60.9
"2010-07-15 00:43:30",602,8.94,96.1,1.684,0.356,-2.655,109.32,23.15,24.18,42.15,0,111,13.14,23.98,58.1
"2010-07-15 00:44:00",603,9.35,98,2,0.334,-3.102,109.2962,23.09,24.14,42.28,0,111,13.14,23.92,60.0
"2010-07-15 00:44:30",604,8.96,97.8,1.415,0.373,-7.911,109.2684,23.02,24.07,42.44,0,111,13.13,23.85,59.8
"2010-07-15 00:45:00",605,8.66,98.4,1.976,0.367,-2.966,109.2413,22.95,24.02,42.43,0,111,13.13,23.78,60.4
"2010-07-15 00:45:30",606,8.82,99.9,1.493,0.351,19.07,109.2199,22.89,23.94,41.92,0,111,13.15,23.72,61.9
"2010-07-15 00:46:00",607,8.48,99.1,2.36,0.295,9.32,109.1983,22.84,23.89,41.71,0,111,13.14,23.67,61.1
"2010-07-15 00:46:30",608,8.44,96.9,1.793,0.467,19.01,109.1686,22.76,23.82,42.18,0,111,13.15,23.59,58.9
"2010-07-15 00:47:00",609,8.92,97.4,1.291,0.238,-1.172,109.1431,22.69,23.78,40.39,0,111,13.15,23.52,59.4
"2010-07-15 00:47:30",610,8.74,93.3,1.176,0.097,-38.32,109.1237,22.64,23.7,39.67,0,111,13.15,23.47,55.3
"2010-07-15 00:48:00",611,9.64,98.1,1.936,0.505,-34.68,109.104,22.59,23.66,38.65,0,111,13.15,23.42,60.1
"2010-07-15 00:48:30",612,9.27,96.1,1.468,0.237,-24.15,109.0914,22.56,23.61,38.8,0,111,13.15,23.39,58.1
"2010-07-15 00:49:00",613,8.54,94,0.799,0.287,15.28,109.0743,22.52,23.58,40.24,0,111,13.15,23.35,56.0
"2010-07-15 00:49:30",614,8.82,96,2.053,0.362,-18.81,109.0666,22.5,23.53,40.14,0,111,13.15,23.33,58.0
"2010-07-15 00:50:00",615,9.29,91.4,1.714,0.313,-32.34,109.0566,22.47,23.49,39.55,0,111,13.16,23.30,53.4
"2010-07-15 00:50:30",616,9.59,95,1.557,0.375,-12.37,109.0555,22.47,23.46,38.76,0,111,13.16,23.30,57.0
"2010-07-15 00:51:00",617,8.96,92.2,0.998,0.152,-9.5,109.0332,22.41,23.42,38.32,0,111,13.16,23.24,54.2
"2010-07-15 00:51:30",618,8.59,90.9,0.882,0.257,14.54,109.028,22.4,23.38,38.72,0,110.9,13.16,23.23,52.9
"2010-07-15 00:52:00",619,8.33,91.2,1.379,0.501,-7.005,109.0198,22.38,23.37,38.83,0,110.9,13.16,23.21,53.2
"2010-07-15 00:52:30",620,7.731,89.7,1.313,0.221,18.91,109.0171,22.37,23.34,39.58,0,110.9,13.16,23.20,51.7
"2010-07-15 00:53:00",621,7.775,92,1.752,0.507,-10.66,109.0278,22.4,23.33,39.53,0,110.9,13.16,23.23,54.0
"2010-07-15 00:53:30",622,7.559,97.1,1.044,0.193,18.88,109.0444,22.44,23.36,38.09,0,110.9,13.16,23.27,59.1
"2010-07-15 00:54:00",623,7.406,98.5,1.58,0.174,24.08,109.0812,22.53,23.4,37.14,0,110.9,13.16,23.37,60.5
"2010-07-15 00:54:30",624,7.093,100,1.766,0.363,25.52,109.1353,22.67,23.46,35.82,0,110.9,13.16,23.50,62.0
"2010-07-15 00:55:00",625,6.434,98.1,2.776,0.405,23.8,109.2124,22.87,23.56,34.58,0,110.9,13.17,23.70,60.1
"2010-07-15 00:55:30",626,6.409,97.7,2.671,0.459,24.73,109.3051,23.11,23.71,33.86,0,110.9,13.17,23.94,59.7
"2010-07-15 00:56:00",627,6.749,92.3,1.974,0.209,24.02,109.3893,23.33,23.88,33.37,0,110.9,13.17,24.16,54.3
"2010-07-15 00:56:30",628,6.277,98,1.961,0.333,23.54,109.4625,23.51,24.05,32.69,0,110.9,13.17,24.35,60.0
"2010-07-15 00:57:00",629,6.036,97.3,1.898,0.242,13.25,109.5289,23.68,24.22,32.44,0,110.9,13.16,24.52,59.3
"2010-07-15 00:57:30",630,7.231,97.4,1.085,0.54,-8.95,109.589,23.84,24.38,32.95,0,110.9,13.16,24.67,59.4
"2010-07-15 00:58:00",631,7.945,98.4,1.326,0.325,12.61,109.6126,23.9,24.5,33.68,0,110.9,13.16,24.73,60.4
"2010-07-15 00:58:30",632,7.63,98.9,2.157,0.335,13.41,109.6176,23.91,24.57,32.81,0,110.9,13.16,24.75,60.9
"2010-07-15 00:59:00",633,6.714,99.5,2.835,0.482,11.31,109.6435,23.98,24.64,32.55,0,110.9,13.16,24.81,61.5
"2010-07-15 00:59:30",634,6.022,101.6,3.06,0.309,17.44,109.6632,24.03,24.7,31.66,0,110.9,13.16,24.87,63.6
"2010-07-15 01:00:00",635,6.39,104.1,4.896,0.412,21.76,109.6944,24.11,24.77,32,0,110.9,13.17,24.95,66.1
"2010-07-15 01:00:30",636,7.254,104,3.405,0.444,8.96,109.7062,24.14,24.84,32.18,0,110.9,13.16,24.98,66.0
"2010-07-15 01:01:00",637,7.629,99.7,4.301,0.411,24.1,109.7014,24.13,24.88,31.84,0,110.9,13.17,24.96,61.7
"2010-07-15 01:01:30",638,8.65,103.1,1.989,0.56,-19.46,109.7023,24.13,24.9,31.83,0,110.9,13.16,24.97,65.1
"2010-07-15 01:02:00",639,9.03,105.6,1.5,0.324,-3.726,109.6881,24.09,24.91,32.25,0,110.9,13.17,24.93,67.6
"2010-07-15 01:02:30",640,9.9,105.8,1.042,0.213,22.85,109.6679,24.04,24.94,32.45,0,110.9,13.17,24.88,67.8
"2010-07-15 01:03:00",641,9.92,105,2.044,0.464,23.66,109.6518,24,24.9,32.14,0,110.9,13.17,24.84,67.0
"2010-07-15 01:03:30",642,9.61,105.1,2.097,0.302,23.75,109.6271,23.94,24.87,31.51,0,110.9,13.18,24.77,67.1
"2010-07-15 01:04:00",643,9.16,110.2,5.101,0.855,22.91,109.6191,23.92,24.84,31.29,0,110.9,13.18,24.75,72.2
"2010-07-15 01:04:30",644,7.185,99.6,11.76,0.729,23.38,109.6268,23.94,24.85,29.97,0,110.9,13.18,24.77,61.6
"2010-07-15 01:05:00",645,9.8,107.7,4.921,0.902,22.65,109.6608,24.02,24.89,30.65,0,110.9,13.18,24.86,69.7
"2010-07-15 01:05:30",646,9.89,105.8,6.564,0.982,21.96,109.6836,24.08,24.94,30.92,0,110.9,13.18,24.92,67.8
"2010-07-15 01:06:00",647,10.72,111.8,2.746,0.677,21.36,109.6837,24.08,24.97,32.14,0,110.9,13.18,24.92,73.8
"2010-07-15 01:06:30",648,11.34,114.7,1.763,0.095,20.91,109.6552,24.01,24.95,33.47,0,110.9,13.18,24.84,76.7
"2010-07-15 01:07:00",649,11.41,118,0.507,0.152,20.72,109.6448,23.98,24.95,35.34,0,110.9,13.18,24.82,80.0
"2010-07-15 01:07:30",650,11.73,117.6,0.891,0.139,20.77,109.6169,23.91,24.94,35.49,0,110.9,13.18,24.75,79.6
"2010-07-15 01:08:00",651,11.5,119.5,0.646,0.11,20.72,109.583,23.82,24.86,36.05,0,110.9,13.18,24.66,81.5
"2010-07-15 01:08:30",652,11.64,122,0.978,0.148,20.67,109.5421,23.72,24.82,36.99,0,110.9,13.18,24.55,84.0
"2010-07-15 01:09:00",653,11.29,124.1,1.138,0.304,20.67,109.4857,23.57,24.74,38.15,0,110.9,13.18,24.41,86.1
"2010-07-15 01:09:30",654,11.23,124.9,1.448,0.241,20.82,109.4375,23.45,24.63,38.94,0,110.9,13.18,24.28,86.9
"2010-07-15 01:10:00",655,11.17,126.4,1.281,0.233,20.88,109.3862,23.32,24.53,39.53,0,110.9,13.18,24.15,88.4
"2010-07-15 01:10:30",656,11.24,128.4,1.332,0.316,20.96,109.3292,23.17,24.41,39.78,0,110.9,13.18,24.00,90.4
"2010-07-15 01:11:00",657,11.12,130,1.239,0.501,20.9,109.2817,23.05,24.3,40.74,0,110.9,13.18,23.88,92.0
"2010-07-15 01:11:30",658,11.13,130.1,1.407,0.227,20.92,109.2271,22.91,24.18,41.23,0,110.9,13.18,23.74,92.1
"2010-07-15 01:12:00",659,11,128.6,1.455,0.283,20.91,109.1875,22.81,24.05,41.75,0,110.9,13.17,23.64,90.6
"2010-07-15 01:12:30",660,11.71,128.5,0.948,0.175,21.08,109.156,22.73,23.97,41.36,0,110.9,13.17,23.56,90.5
"2010-07-15 01:13:00",661,11.77,127.6,1.217,0.385,21.12,109.1298,22.66,23.87,41.12,0,110.9,13.17,23.49,89.6
"2010-07-15 01:13:30",662,12.77,126.7,1.013,0.354,21.23,109.1082,22.6,23.79,40.78,0,110.9,13.17,23.43,88.7
"2010-07-15 01:14:00",663,12.87,126.9,0.575,0.094,21.27,109.086,22.55,23.73,40.76,0,110.9,13.17,23.38,88.9
"2010-07-15 01:14:30",664,12.93,126.8,0.908,0.138,21.5,109.0756,22.52,23.65,39.45,0,110.9,13.17,23.35,88.8
"2010-07-15 01:15:00",665,13.04,126.8,0.868,0.126,21.53,109.0756,22.52,23.6,38.49,0,110.9,13.17,23.35,88.8
"2010-07-15 01:15:30",666,12.85,125.4,0.602,0.122,21.63,109.0756,22.52,23.58,38,0,110.9,13.17,23.35,87.4
"2010-07-15 01:16:00",667,12.52,124.6,0.622,0.578,21.7,109.0902,22.56,23.56,37.09,0,110.9,13.17,23.39,86.6
"2010-07-15 01:16:30",668,12.33,123.8,0.808,0.337,21.78,109.1093,22.61,23.56,36.35,0,110.9,13.17,23.44,85.8
"2010-07-15 01:17:00",669,12.58,123.7,0.887,0.182,21.73,109.1301,22.66,23.57,36.45,0,110.9,13.17,23.49,85.7
"2010-07-15 01:17:30",670,12.68,123.8,1.132,0.165,21.66,109.1492,22.71,23.61,36.51,0,110.9,13.17,23.54,85.8
"2010-07-15 01:18:00",671,12.45,123.5,0.811,0.167,21.75,109.1737,22.77,23.64,35.72,0,110.9,13.17,23.60,85.5
"2010-07-15 01:18:30",672,13.12,124.1,1.609,0.162,21.34,109.1807,22.79,23.67,37.63,0,110.9,13.17,23.62,86.1
"2010-07-15 01:19:00",673,12.79,122.7,0.973,0.086,21.22,109.1785,22.78,23.69,38.76,0,110.9,13.17,23.62,84.7
"2010-07-15 01:19:30",674,12.61,122.2,0.929,0.256,21.02,109.174,22.77,23.67,41.11,0,110.9,13.17,23.60,84.2
"2010-07-15 01:20:00",675,12.35,122.8,0.824,0.362,20.88,109.1442,22.7,23.65,42.56,0,110.9,13.17,23.53,84.8
"2010-07-15 01:20:30",676,12.27,122.8,0.816,0.223,20.96,109.1113,22.61,23.61,43.18,0,110.9,13.17,23.44,84.8
"2010-07-15 01:21:00",677,12.38,123.2,0.774,0.274,20.99,109.0846,22.54,23.55,43.6,0,110.9,13.17,23.37,85.2
"2010-07-15 01:21:30",678,12.06,125.1,0.714,0.103,21.02,109.0531,22.46,23.5,44.08,0,110.9,13.17,23.29,87.1
"2010-07-15 01:22:00",679,12.14,126,0.537,0.188,20.97,109.0323,22.41,23.45,44.51,0,110.9,13.17,23.24,88.0
"2010-07-15 01:22:30",680,12.05,127.4,0.647,0.167,21.01,109.0061,22.34,23.39,44.86,0,110.9,13.17,23.17,89.4
"2010-07-15 01:23:00",681,11.71,130.4,1.145,0.288,20.99,108.976,22.26,23.36,45.17,0,110.9,13.17,23.09,92.4
"2010-07-15 01:23:30",682,11.46,130.8,1.018,0.294,20.94,108.9552,22.21,23.28,45.42,0,110.9,13.17,23.04,92.8
"2010-07-15 01:24:00",683,11.42,130.6,1.521,0.364,20.95,108.9395,22.17,23.23,45.75,0,110.9,13.18,23.00,92.6
"2010-07-15 01:24:30",684,10.49,132.3,3.69,0.226,20.89,108.9111,22.1,23.18,46.31,0,110.9,13.17,22.93,94.3
"2010-07-15 01:25:00",685,10.9,131.2,1.473,0.454,20.9,108.9055,22.08,23.13,46.57,0,110.9,13.18,22.91,93.2
"2010-07-15 01:25:30",686,10.91,129.7,0.737,0.499,21,108.883,22.03,23.1,46.34,0,110.9,13.18,22.85,91.7
"2010-07-15 01:26:00",687,11.48,129,1.273,0.261,20.95,108.8731,22,23.04,46.38,0,110.9,13.18,22.83,91.0
"2010-07-15 01:26:30",688,11.61,128.2,1.475,0.425,20.97,108.8549,21.95,23,46.39,0,111,13.18,22.78,90.2
"2010-07-15 01:27:00",689,12.2,130.1,1.222,0.598,20.91,108.8419,21.92,22.97,46.89,0,110.9,13.18,22.75,92.1
"2010-07-15 01:27:30",690,12.96,128.1,2.269,0.891,21.14,108.8394,21.91,22.94,45.01,0,111,13.18,22.74,90.1
"2010-07-15 01:28:00",691,12.86,129.4,1.414,0.179,21.1,108.8394,21.91,22.9,44.25,0,110.9,13.18,22.74,91.4
"2010-07-15 01:28:30",692,12.76,128.5,1.276,0.207,21.17,108.8394,21.91,22.88,43.48,0,110.9,13.18,22.74,90.5
"2010-07-15 01:29:00",693,12.13,131.5,1.346,0.258,21.19,108.8394,21.91,22.89,44.36,0,111,13.18,22.74,93.5
"2010-07-15 01:29:30",694,12.36,129.9,1.062,0.207,21.29,108.84,21.92,22.87,43.65,0,110.9,13.18,22.74,91.9
"2010-07-15 01:30:00",695,12.51,128.8,0.917,0.111,21.46,108.8464,21.93,22.88,42.46,0,110.9,13.18,22.76,90.8
"2010-07-15 01:30:30",696,12.01,128.4,1.694,0.169,21.31,108.8709,21.99,22.89,42.47,0,111,13.18,22.82,90.4
"2010-07-15 01:31:00",697,11.87,127.9,1.231,0.195,21.6,108.8776,22.01,22.91,41.37,0,110.9,13.17,22.84,89.9
"2010-07-15 01:31:30",698,11.98,129.1,0.666,0.141,21.25,108.9018,22.07,22.94,42.95,0,110.9,13.17,22.90,91.1
"2010-07-15 01:32:00",699,11.63,128.9,0.942,0.182,21.41,108.9077,22.09,22.96,42.54,0,110.9,13.17,22.92,90.9
"2010-07-15 01:32:30",700,11.48,130.2,0.879,0.231,21.78,108.9288,22.14,22.98,40.42,0,110.9,13.17,22.97,92.2
"2010-07-15 01:33:00",701,10.81,130.9,0.885,0.171,21.92,108.958,22.22,23.04,39.62,0,110.9,13.17,23.05,92.9
"2010-07-15 01:33:30",702,10.7,130.6,1.026,0.188,21.97,108.9901,22.3,23.08,38.75,0,111,13.17,23.13,92.6
"2010-07-15 01:34:00",703,11,130.2,1.194,0.254,21.75,109.0247,22.39,23.15,38.88,0,110.9,13.17,23.22,92.2
"2010-07-15 01:34:30",704,10.75,127.6,1.432,0.25,21.76,109.0556,22.47,23.2,38.11,0,110.9,13.17,23.30,89.6
"2010-07-15 01:35:00",705,10.95,129.4,1.258,0.239,21.69,109.0879,22.55,23.26,37.56,0,110.9,13.17,23.38,91.4
"2010-07-15 01:35:30",706,11.08,130,0.686,0.141,21.64,109.1245,22.65,23.35,36.94,0,110.9,13.17,23.48,92.0
"2010-07-15 01:36:00",707,10.87,129.1,0.537,0.149,21.6,109.1593,22.74,23.42,36.38,0,111,13.17,23.57,91.1
"2010-07-15 01:36:30",708,11.06,129.1,0.798,0.142,21.59,109.1906,22.82,23.51,35.84,0,110.9,13.18,23.65,91.1
"2010-07-15 01:37:00",709,10.85,129.9,0.83,0.224,21.63,109.219,22.89,23.56,35.32,0,111,13.18,23.72,91.9
"2010-07-15 01:37:30",710,10.51,131,0.591,0.236,21.79,109.2561,22.98,23.63,34.52,0,111,13.18,23.82,93.0
"2010-07-15 01:38:00",711,11.16,129.9,0.922,0.281,21.17,109.2825,23.05,23.73,36.37,0,111,13.18,23.88,91.9
"2010-07-15 01:38:30",712,11.16,130.3,0.51,0.165,21.39,109.3053,23.11,23.79,36.66,0,111,13.18,23.94,92.3
"2010-07-15 01:39:00",713,11.29,130.2,0.953,0.365,21.46,109.3117,23.13,23.86,36.13,0,110.9,13.18,23.96,92.2
"2010-07-15 01:39:30",714,12.1,128.1,0.852,0.155,21.2,109.312,23.13,23.89,37.7,0,111,13.18,23.96,90.1
"2010-07-15 01:40:00",715,12.29,127.6,0.737,0.132,20.91,109.3117,23.13,23.91,39.99,0,111,13.18,23.96,89.6
"2010-07-15 01:40:30",716,12.3,127.2,0.848,0.158,21,109.3008,23.1,23.93,40.54,0,111,13.18,23.93,89.2
"2010-07-15 01:41:00",717,12.8,128.7,1.085,0.209,21.31,109.278,23.04,23.92,40.29,0,111,13.18,23.87,90.7
"2010-07-15 01:41:30",718,12.93,128.5,0.639,0.153,21.33,109.26,22.99,23.9,40.77,0,111,13.18,23.83,90.5
"2010-07-15 01:42:00",719,12.61,129.4,1.106,0.313,21.6,109.2445,22.95,23.87,39.23,0,111,13.18,23.79,91.4
"2010-07-15 01:42:30",720,11.78,127.8,1.017,0.259,21.78,109.2443,22.95,23.86,37.4,0,111,13.18,23.79,89.8
"2010-07-15 01:43:00",721,11.79,126.6,0.776,0.188,21.72,109.2443,22.95,23.83,37.7,0,111,13.18,23.79,88.6
"2010-07-15 01:43:30",722,11.47,125.7,0.861,0.204,21.75,109.2443,22.95,23.83,36.8,0,111,13.18,23.79,87.7
"2010-07-15 01:44:00",723,11.33,127.1,1.341,0.164,21.52,109.2445,22.95,23.85,38.75,0,111,13.18,23.79,89.1
"2010-07-15 01:44:30",724,11.47,128.7,1.48,0.283,21.56,109.2448,22.95,23.86,39,0,111,13.18,23.79,90.7
"2010-07-15 01:45:00",725,11.38,128.7,1.29,0.149,21.43,109.2443,22.95,23.87,39.85,0,111,13.18,23.79,90.7
"2010-07-15 01:45:30",726,11.04,129.1,1.217,0.271,21.69,109.2443,22.95,23.85,39.02,0,111,13.18,23.79,91.1
"2010-07-15 01:46:00",727,11.17,130.4,0.708,0.498,21.7,109.2443,22.95,23.85,39.35,0,111,13.18,23.79,92.4
"2010-07-15 01:46:30",728,11.17,130.3,0.955,0.321,21.91,109.2451,22.96,23.85,37.96,0,111,13.18,23.79,92.3
"2010-07-15 01:47:00",729,11.14,129.8,0.678,0.227,21.89,109.2538,22.98,23.86,38.22,0,111,13.18,23.81,91.8
"2010-07-15 01:47:30",730,10.91,130.7,0.832,0.296,21.88,109.271,23.02,23.88,38.6,0,111,13.18,23.85,92.7
"2010-07-15 01:48:00",731,10.61,130.7,0.801,0.138,21.73,109.278,23.04,23.9,38.84,0,111,13.17,23.87,92.7
"2010-07-15 01:48:30",732,10.78,130.2,0.616,0.093,21.68,109.278,23.04,23.91,39.61,0,111,13.17,23.87,92.2
"2010-07-15 01:49:00",733,10.59,131.7,0.86,0.189,21.42,109.278,23.04,23.9,40.58,0,111,13.17,23.87,93.7
"2010-07-15 01:49:30",734,10.78,130.9,1.561,0.202,21.19,109.2634,23,23.91,42.65,0,111,13.17,23.83,92.9
"2010-07-15 01:50:00",735,10.25,129.5,1.527,0.365,21.08,109.242,22.95,23.91,43.86,0,111,13.17,23.78,91.5
"2010-07-15 01:50:30",736,10.26,129.6,1.334,0.22,21.12,109.2164,22.88,23.87,43.99,0,111,13.17,23.71,91.6
"2010-07-15 01:51:00",737,10,129.3,0.698,0.171,21.46,109.2091,22.86,23.84,42.46,0,111,13.17,23.69,91.3
"2010-07-15 01:51:30",738,9.33,127.7,1.459,0.317,21.49,109.1816,22.79,23.81,41.96,0,111,13.17,23.62,89.7
"2010-07-15 01:52:00",739,8.28,122.2,2.5,0.636,20.82,109.1675,22.76,23.76,44.82,0,111,13.17,23.59,84.2
"2010-07-15 01:52:30",740,6.831,113.1,5.599,0.803,20.69,109.1082,22.6,23.66,46.24,0,111,13.17,23.43,75.1
"2010-07-15 01:53:00",741,5.913,114.2,6.492,0.407,20.65,109.0359,22.42,23.52,47.15,0,111,13.17,23.25,76.2